Location: *
(40.7873°S, 98.7174°E)
Time: 13:14:58
(UTC+00:00)

CZ-2C R/B - Visible Passes

Search period start: 06 October 2022 00:00
Search period end: 16 October 2022 00:00
Orbit: 379 x 534 km, 35.0° (Epoch: 05 October)

Date Brightness Start Highest point End Pass type
(mag) Time Alt. Az. Time Alt. Az. Time Alt. Az.
06 Oct 3.8 20:17:11 14° NE 20:17:11 14° NE 20:17:48 10° ENE visible
06 Oct 2.9 21:50:52 16° NW 21:52:31 19° NNW 21:55:31 10° NNE visible
07 Oct 2.9 21:16:05 20° N 21:16:05 20° N 21:18:38 10° NNE visible
08 Oct 3.8 20:41:22 11° NNE 20:41:22 11° NNE 20:41:40 10° NNE visible
15 Oct 2.8 12:58:40 10° NNW 13:00:01 14° N 13:00:01 14° N visible
